Location: Newark
(22.3060°N, 114.2134°E)
Time: 23:18:45
(UTC+00:00)

Vanguard 2 - Pass Details

Date: 03 August 2021
Orbit: 553 x 2937 km, 32.9° (Epoch: 26 September)

Event Time Altitude Azimuth Distance (km) Brightness Sun altitude
Rises 18:51:36 0° 249° (WSW) 3,186 - -37.3°
Reaches altitude 10° 18:54:18 10° 252° (WSW) 2,062 - -36.8°
Maximum altitude 18:58:43 67° 335° (NNW) 611 - -36.1°
Exits shadow 19:02:05 14° 58° (ENE) 1,593 9.8 -35.6°
Drops below altitude 10° 19:02:38 10° 59° (ENE) 1,824 10.2 -35.5°
Sets 19:04:53 0° 62° (ENE) 2,777 11.4 -35.1°
